When you browse on this site, cookies collect data to enhance your experience and personalize the content and advertising you see.
Visit our Privacy Policy to learn more. By continuing to use the site, you agree to this use of cookies and data.

Stündliche Wetter Newcastle

Heute, 14 August, Freitag

Zeit Temperatur Niederschläge Wind Luftdruck Luftfeuchtigkeit
00:00 +15°C° 0 mm 2 m/S 761 mmHg 76%
01:00 +15°C° 0 mm 2 m/S 761 mmHg 73%
02:00 +15°C° 0 mm 2 m/S 761 mmHg 73%
03:00 +15°C° 0 mm 2 m/S 761 mmHg 72%
04:00 +14°C° 0 mm 1 m/S 761 mmHg 74%
05:00 +14°C° 0 mm 1 m/S 761 mmHg 75%
06:00 +14°C° 0 mm 1 m/S 761 mmHg 76%
07:00 +13°C° 0 mm 1 m/S 761 mmHg 77%
08:00 +16°C° 0 mm 1 m/S 761 mmHg 70%
09:00 +19°C° 0 mm 1 m/S 761 mmHg 63%
10:00 +20°C° 0 mm 1 m/S 761 mmHg 59%
11:00 +21°C° 0 mm 1 m/S 760 mmHg 58%
12:00 +22°C° 0 mm 1 m/S 760 mmHg 56%
13:00 +23°C° 0 mm 1 m/S 759 mmHg 55%
14:00 +20°C° 0.4 mm 2 m/S 759 mmHg 66%
15:00 +18°C° 0.4 mm 2 m/S 759 mmHg 77%
16:00 +17°C° 0.4 mm 3 m/S 758 mmHg 88%
17:00 +16°C° 1 mm 2 m/S 758 mmHg 91%
18:00 +16°C° 1 mm 1 m/S 758 mmHg 94%
19:00 +14°C° 1 mm 0 m/S 758 mmHg 97%
20:00 +15°C° 2.2 mm 2 m/S 757 mmHg 97%
21:00 +14°C° 2.2 mm 3 m/S 757 mmHg 97%
22:00 +14°C° 2.2 mm 5 m/S 757 mmHg 97%
23:00 +14°C° 0.1 mm 4 m/S 756 mmHg 96%

Morgen, 15 August, Samstag

Zeit Temperatur Niederschläge Wind Luftdruck Luftfeuchtigkeit
00:00 +14°C° 0.1 mm 4 m/S 755 mmHg 96%
01:00 +14°C° 0.1 mm 4 m/S 754 mmHg 96%
02:00 +14°C° 0.2 mm 4 m/S 754 mmHg 96%
03:00 +14°C° 0.2 mm 4 m/S 753 mmHg 96%
04:00 +13°C° 0.2 mm 5 m/S 753 mmHg 96%
05:00 +13°C° 0 mm 5 m/S 753 mmHg 95%
06:00 +13°C° 0 mm 6 m/S 754 mmHg 93%
07:00 +11°C° 0 mm 6 m/S 754 mmHg 92%
08:00 +14°C° 0 mm 7 m/S 754 mmHg 84%
09:00 +15°C° 0 mm 7 m/S 754 mmHg 75%
10:00 +17°C° 0 mm 7 m/S 754 mmHg 67%
11:00 +17°C° 0.1 mm 7 m/S 754 mmHg 64%
12:00 +18°C° 0.1 mm 7 m/S 754 mmHg 61%
13:00 +19°C° 0.1 mm 6 m/S 753 mmHg 58%
14:00 +19°C° 0.4 mm 6 m/S 753 mmHg 61%
15:00 +19°C° 0.4 mm 6 m/S 753 mmHg 64%
16:00 +17°C° 0.4 mm 5 m/S 753 mmHg 68%
17:00 +16°C° 0.2 mm 5 m/S 753 mmHg 71%
18:00 +15°C° 0.2 mm 5 m/S 754 mmHg 73%
19:00 +14°C° 0.2 mm 5 m/S 755 mmHg 76%
20:00 +13°C° 0 mm 6 m/S 755 mmHg 78%
21:00 +13°C° 0 mm 6 m/S 755 mmHg 79%
22:00 +13°C° 0 mm 6 m/S 755 mmHg 80%
23:00 +11°C° 0 mm 6 m/S 755 mmHg 81%

übermorgen, 16 August, Sonntag

Zeit Temperatur Niederschläge Wind Luftdruck Luftfeuchtigkeit
00:00 +11°C° 0 mm 6 m/S 754 mmHg 82%
01:00 +11°C° 0 mm 6 m/S 754 mmHg 83%
02:00 +11°C° 0 mm 6 m/S 754 mmHg 81%
03:00 +11°C° 0 mm 6 m/S 754 mmHg 79%
04:00 +11°C° 0 mm 6 m/S 754 mmHg 77%
05:00 +11°C° 0 mm 7 m/S 754 mmHg 76%
06:00 +11°C° 0 mm 7 m/S 754 mmHg 75%
07:00 +11°C° 0 mm 7 m/S 755 mmHg 74%
08:00 +14°C° 0 mm 7 m/S 755 mmHg 69%
09:00 +15°C° 0 mm 7 m/S 755 mmHg 64%
10:00 +16°C° 0 mm 7 m/S 755 mmHg 59%
11:00 +17°C° 0 mm 7 m/S 754 mmHg 57%
12:00 +18°C° 0 mm 7 m/S 754 mmHg 54%
13:00 +18°C° 0 mm 7 m/S 753 mmHg 52%
14:00 +18°C° 0 mm 7 m/S 753 mmHg 53%
15:00 +17°C° 0 mm 7 m/S 753 mmHg 55%
16:00 +17°C° 0 mm 6 m/S 753 mmHg 57%
17:00 +15°C° 0 mm 6 m/S 754 mmHg 59%
18:00 +14°C° 0 mm 6 m/S 755 mmHg 62%
19:00 +13°C° 0 mm 6 m/S 755 mmHg 65%
20:00 +11°C° 0 mm 6 m/S 756 mmHg 67%
21:00 +11°C° 0 mm 6 m/S 756 mmHg 70%
22:00 +10°C° 0 mm 6 m/S 756 mmHg 72%
23:00 +11°C° 0 mm 6 m/S 756 mmHg 72%

17 August, Montag

Zeit Temperatur Niederschläge Wind Luftdruck Luftfeuchtigkeit
00:00 +11°C° 0 mm 6 m/S 756 mmHg 71%
01:00 +11°C° 0 mm 6 m/S 756 mmHg 71%
02:00 +11°C° 0 mm 6 m/S 756 mmHg 73%
03:00 +10°C° 0 mm 6 m/S 756 mmHg 75%
04:00 +10°C° 0 mm 6 m/S 756 mmHg 77%
05:00 +9°C° 0 mm 6 m/S 756 mmHg 79%
06:00 +9°C° 0 mm 5 m/S 757 mmHg 81%
07:00 +8°C° 0 mm 5 m/S 757 mmHg 83%
08:00 +10°C° 0 mm 5 m/S 757 mmHg 76%
09:00 +13°C° 0 mm 5 m/S 757 mmHg 70%
10:00 +15°C° 0 mm 5 m/S 758 mmHg 64%
11:00 +16°C° 0 mm 5 m/S 757 mmHg 59%
12:00 +18°C° 0 mm 4 m/S 756 mmHg 55%
13:00 +19°C° 0 mm 3 m/S 756 mmHg 50%
14:00 +19°C° 0 mm 4 m/S 756 mmHg 54%
15:00 +18°C° 0 mm 4 m/S 756 mmHg 57%
16:00 +17°C° 0 mm 5 m/S 756 mmHg 60%
17:00 +16°C° 0 mm 5 m/S 756 mmHg 62%
18:00 +14°C° 0 mm 6 m/S 757 mmHg 63%
19:00 +13°C° 0 mm 6 m/S 757 mmHg 65%
20:00 +11°C° 0 mm 6 m/S 757 mmHg 69%
21:00 +12°C° 0 mm 5 m/S 758 mmHg 73%
22:00 +10°C° 0 mm 5 m/S 758 mmHg 77%
23:00 +9°C° 0 mm 5 m/S 758 mmHg 78%

18 August, Dienstag

Zeit Temperatur Niederschläge Wind Luftdruck Luftfeuchtigkeit
00:00 +9°C° 0 mm 5 m/S 758 mmHg 80%
01:00 +9°C° 0 mm 5 m/S 757 mmHg 82%
02:00 +8°C° 0 mm 4 m/S 757 mmHg 82%
03:00 +8°C° 0 mm 4 m/S 757 mmHg 83%
04:00 +7°C° 0 mm 4 m/S 757 mmHg 83%
05:00 +8°C° 0 mm 4 m/S 757 mmHg 80%
06:00 +8°C° 0 mm 4 m/S 757 mmHg 77%
07:00 +10°C° 0 mm 4 m/S 757 mmHg 73%
08:00 +10°C° 0 mm 5 m/S 757 mmHg 67%
09:00 +13°C° 0 mm 5 m/S 757 mmHg 61%
10:00 +15°C° 0 mm 5 m/S 757 mmHg 56%
11:00 +16°C° 0 mm 5 m/S 756 mmHg 54%
12:00 +17°C° 0 mm 5 m/S 756 mmHg 53%
13:00 +19°C° 0 mm 5 m/S 755 mmHg 51%
14:00 +19°C° 0 mm 5 m/S 755 mmHg 53%
15:00 +19°C° 0 mm 5 m/S 754 mmHg 55%
16:00 +19°C° 0 mm 5 m/S 754 mmHg 57%
17:00 +16°C° 0 mm 5 m/S 754 mmHg 64%
18:00 +15°C° 0 mm 5 m/S 755 mmHg 71%
19:00 +13°C° 0 mm 4 m/S 755 mmHg 79%
20:00 +13°C° 0 mm 4 m/S 755 mmHg 82%
21:00 +12°C° 0 mm 4 m/S 755 mmHg 85%
22:00 +11°C° 0 mm 4 m/S 755 mmHg 89%
23:00 +11°C° 0 mm 4 m/S 754 mmHg 88%

19 August, Mittwoch

Zeit Temperatur Niederschläge Wind Luftdruck Luftfeuchtigkeit
00:00 +10°C° 0 mm 5 m/S 754 mmHg 87%
01:00 +9°C° 0 mm 5 m/S 753 mmHg 86%
02:00 +9°C° 0 mm 5 m/S 753 mmHg 87%
03:00 +9°C° 0 mm 5 m/S 753 mmHg 87%
04:00 +9°C° 0 mm 5 m/S 753 mmHg 87%
05:00 +9°C° 0 mm 5 m/S 753 mmHg 87%
06:00 +9°C° 0 mm 5 m/S 753 mmHg 87%
07:00 +8°C° 0 mm 4 m/S 754 mmHg 87%
08:00 +12°C° 0 mm 5 m/S 753 mmHg 75%
09:00 +14°C° 0 mm 5 m/S 753 mmHg 63%
10:00 +16°C° 0 mm 5 m/S 753 mmHg 51%
11:00 +16°C° 0 mm 5 m/S 753 mmHg 48%
12:00 +17°C° 0 mm 5 m/S 752 mmHg 45%
13:00 +19°C° 0 mm 5 m/S 751 mmHg 43%
14:00 +19°C° 0 mm 5 m/S 751 mmHg 44%
15:00 +19°C° 0 mm 6 m/S 751 mmHg 44%
16:00 +17°C° 0 mm 6 m/S 750 mmHg 45%
17:00 +16°C° 0 mm 6 m/S 751 mmHg 49%
18:00 +15°C° 0 mm 6 m/S 751 mmHg 53%
19:00 +13°C° 0 mm 6 m/S 752 mmHg 57%
20:00 +13°C° 0 mm 6 m/S 752 mmHg 59%
21:00 +11°C° 0 mm 7 m/S 752 mmHg 61%
22:00 +11°C° 0 mm 7 m/S 752 mmHg 63%
23:00 +11°C° 0 mm 8 m/S 751 mmHg 61%
Mehr zeigen